| time (UTC) | temp F | wind direction | speed MPH | gust MPH | rain 1hr in | rain 24hr in | rain mn in | humidity % | barometer mb |
| 20260504050341 | 95 | 293 | 3.0 | 3.0 | 0.00 | 0.00 | 0.00 | 76 | 997.0 |
| 20260504044340 | 92 | 248 | 4.0 | 4.0 | 0.00 | 0.00 | 0.00 | 82 | 997.3 |
| 20260504042841 | 92 | 113 | 5.0 | 5.0 | 0.00 | 0.00 | 0.00 | 82 | 997.3 |
| 20260504040841 | 89 | 293 | 5.0 | 5.0 | 0.00 | 0.00 | 0.00 | 86 | 997.6 |
| 20260504035841 | 89 | 270 | 5.0 | 5.0 | 0.00 | 0.00 | 0.00 | 84 | 997.3 |
| 20260504033341 | 89 | 270 | 4.0 | 4.0 | 0.00 | 0.00 | 0.00 | 86 | 997.3 |
| 20260504032841 | 89 | 270 | 3.0 | 3.0 | 0.00 | 0.00 | 0.00 | 86 | 997.3 |
| 20260504032341 | 89 | 225 | 3.0 | 3.0 | 0.00 | 0.00 | 0.00 | 86 | 997.3 |
| 20260504031341 | 88 | 270 | 3.0 | 3.0 | 0.00 | 0.00 | 0.00 | 87 | 997.3 |
| 20260504025341 | 88 | 270 | 2.0 | 2.0 | 0.00 | 0.00 | 0.00 | 88 | 997.3 |
| 20260504024341 | 86 | 225 | 1.0 | 1.0 | 0.00 | 0.00 | 0.00 | 91 | 997.0 |
| 20260504023841 | 86 | 225 | 2.0 | 2.0 | 0.00 | 0.00 | 0.00 | 91 | 997.0 |
| 20260504021841 | 83 | 338 | 1.0 | 1.0 | 0.00 | 0.00 | 0.00 | 95 | 996.6 |
| 20260504020341 | 83 | 270 | 2.0 | 2.0 | 0.00 | 0.00 | 0.00 | 96 | 996.3 |
| 20260504015840 | 82 | 270 | 1.0 | 1.0 | 0.00 | 0.00 | 0.00 | 96 | 996.3 |
| 20260504014840 | 82 | 225 | 1.0 | 1.0 | 0.00 | 0.00 | 0.00 | 98 | 995.9 |
| 20260504013840 | 81 | 270 | 0.0 | 0.0 | 0.00 | 0.00 | 0.00 | 99 | 995.9 |
| 20260503150810 | 85 | 225 | 5.0 | 5.0 | 0.00 | 0.00 | 0.00 | 94 | 995.9 |
| 20260503140309 | 86 | 225 | 5.0 | 5.0 | 0.00 | 0.00 | 0.00 | 89 | 995.3 |
| 20260503131309 | 87 | 225 | 4.0 | 4.0 | 0.00 | 0.00 | 0.00 | 86 | 994.6 |
| 20260503130809 | 87 | 270 | 5.0 | 5.0 | 0.00 | 0.00 | 0.00 | 86 | 994.6 |
| 20260503130309 | 88 | 270 | 4.0 | 4.0 | 0.00 | 0.00 | 0.00 | 85 | 994.2 |